Location: Antioch Baptist Church
(32.6696°N, 85.7327°W)
Time: 12:17:40
(UTC+00:00)

Cosmos 1733 Rocket - Pass Details

Date: 14 July 2020
Orbit: 604 x 627 km, 82.5° (Epoch: 08 August)

Event Time Altitude Azimuth Distance (km) Brightness Sun altitude
Exits shadow 07:57:57 52° 21° (NNE) 757 3.7 -27.6°
Drops below altitude 10° 08:01:15 10° 9° (N) 1,954 6.4 -27.2°
Sets 08:03:28 0° 8° (N) 2,861 7.4 -26.9°
